Location: Observatoire
(46.1952°N, 5.3391°E)
Time: 19:58:59
(UTC+01:00)

Explorer 7 - Pass Details

Date: 18 February 2026
Orbit: 430 x 541 km, 50.2° (Epoch: 10 March)

Event Time Altitude Azimuth Distance (km) Brightness Sun altitude
Rises 15:49:25 0° 234° (SW) 2,416 11.7 20.0°
Reaches altitude 10° 15:51:30 10° 231° (SW) 1,563 11.5 19.8°
Maximum altitude 15:54:58 60° 151° (SSE) 524 7.1 19.3°
Drops below altitude 10° 15:58:36 10° 70° (ENE) 1,628 8.7 18.9°
Sets 16:00:49 0° 67° (ENE) 2,529 9.6 18.6°
